カタログに戻る

DELTA 1 DEB

運用中SSO
NORAD 21317·DEBRIS·🇺🇸 United States

打ち上げ Jun 12, 1975 から Vandenberg Space Force Base

Loading…

次のパス (今後24時間)

TLE

最新Source: Space-Track

元期: Sep 13, 2026, 18:29 UTC

1 21317U 75052AK  26256.77059631  .00001260  00000-0  21492-2 0  9991
2 21317 100.0971 194.1865 0212220 109.9081 282.4611 13.38563016692316

AllMySatでDELTA 1 DEBをリアルタイム追跡

Download on the App Store